JBU730 KJFK-KEYW

Flight info

Callsign JBU730
Flight time N/A
Altitude 34000
Route RBV Q430 COPES Q75 ENEME SABEE KRAKN1
Aircraft A321/M-SDE3FGHIRWY/LB1

Departure

Time 2026-05-09 01:05
Airport John F. Kennedy International Airport (KJFK)

Arrival

Time N/A
Airport Key West International Airport (KEYW)
Time Latitude Longitude Altitude Speed Heading
2026-05-08 23:49 40.64758 -73.77686 21 ft 0 kts 191°
2026-05-09 00:50 40.64762 -73.77685 21 ft 3 kts 190°
2026-05-09 00:50 40.64788 -73.77679 22 ft 4 kts 189°
2026-05-09 00:50 40.64814 -73.77674 22 ft 4 kts 188°
2026-05-09 00:50 40.64841 -73.77669 20 ft 4 kts 186°
2026-05-09 00:51 40.64851 -73.77668 23 ft 0 kts 187°
2026-05-09 00:54 40.64849 -73.77668 20 ft 2 kts 185°
2026-05-09 00:54 40.64839 -73.77662 20 ft 1 kts 146°
2026-05-09 00:54 40.64838 -73.77660 20 ft 0 kts 134°
2026-05-09 00:55 40.64838 -73.77658 20 ft 0 kts 127°
2026-05-09 00:55 40.64837 -73.77654 20 ft 1 kts 121°
2026-05-09 00:56 40.64835 -73.77651 20 ft 0 kts 119°
2026-05-09 00:56 40.64834 -73.77648 20 ft 2 kts 115°
2026-05-09 00:57 40.64844 -73.77615 20 ft 7 kts 58°
2026-05-09 00:57 40.64874 -73.77546 20 ft 11 kts 85°
2026-05-09 00:57 40.64844 -73.77447 20 ft 11 kts 120°
2026-05-09 00:57 40.64808 -73.77372 20 ft 9 kts 122°
2026-05-09 00:58 40.64775 -73.77300 20 ft 10 kts 121°
2026-05-09 00:58 40.64740 -73.77222 13 ft 10 kts 119°
2026-05-09 00:58 40.64700 -73.77142 22 ft 11 kts 131°
2026-05-09 00:58 40.64634 -73.77092 20 ft 11 kts 169°
2026-05-09 00:59 40.64552 -73.77090 20 ft 12 kts 181°
2026-05-09 00:59 40.64466 -73.77089 20 ft 12 kts 167°
2026-05-09 00:59 40.64417 -73.77010 21 ft 12 kts 107°
2026-05-09 00:59 40.64365 -73.76935 21 ft 12 kts 157°
2026-05-09 01:00 40.64287 -73.76900 21 ft 12 kts 160°
2026-05-09 01:00 40.64202 -73.76888 21 ft 13 kts 184°
2026-05-09 01:00 40.64112 -73.76899 21 ft 13 kts 187°
2026-05-09 01:00 40.64026 -73.76911 21 ft 11 kts 182°
2026-05-09 01:01 40.63957 -73.76913 21 ft 9 kts 181°
2026-05-09 01:01 40.63902 -73.76914 21 ft 7 kts 181°
2026-05-09 01:01 40.63860 -73.76914 21 ft 5 kts 180°
2026-05-09 01:01 40.63823 -73.76915 20 ft 8 kts 181°
2026-05-09 01:02 40.63702 -73.76918 20 ft 24 kts 181°
2026-05-09 01:02 40.63530 -73.76922 20 ft 24 kts 181°
2026-05-09 01:02 40.63366 -73.76942 20 ft 24 kts 185°
2026-05-09 01:02 40.63206 -73.76949 20 ft 22 kts 181°
2026-05-09 01:03 40.63065 -73.77000 21 ft 22 kts 207°
2026-05-09 01:03 40.62933 -73.77099 21 ft 21 kts 210°
2026-05-09 01:03 40.62860 -73.77155 22 ft 15 kts 211°
2026-05-09 01:03 40.62852 -73.77293 22 ft 13 kts 301°
2026-05-09 01:04 40.62905 -73.77407 24 ft 24 kts 301°
2026-05-09 01:04 40.63115 -73.77877 27 ft 94 kts 301°
2026-05-09 01:04 40.63556 -73.78849 23 ft 151 kts 301°
2026-05-09 01:04 40.64155 -73.80169 180 ft 181 kts 300°
2026-05-09 01:05 40.64753 -73.81606 885 ft 178 kts 287°
2026-05-09 01:05 40.64803 -73.83252 1439 ft 188 kts 257°
2026-05-09 01:05 40.62947 -73.85919 1955 ft 214 kts 216°
2026-05-09 01:06 40.61725 -73.87031 2587 ft 213 kts 217°
2026-05-09 01:06 40.60512 -73.88144 3237 ft 211 kts 218°
2026-05-09 01:06 40.59354 -73.89319 3847 ft 210 kts 228°
2026-05-09 01:06 40.58303 -73.90749 4105 ft 228 kts 229°
2026-05-09 01:07 40.57154 -73.92335 4394 ft 247 kts 229°
2026-05-09 01:07 40.55863 -73.93859 5051 ft 254 kts 218°
2026-05-09 01:07 40.54357 -73.95098 5801 ft 255 kts 216°
2026-05-09 01:07 40.52848 -73.96328 6547 ft 256 kts 217°
2026-05-09 01:08 40.51337 -73.97561 7279 ft 255 kts 217°
2026-05-09 01:08 40.49830 -73.98790 8015 ft 255 kts 218°
2026-05-09 01:08 40.48326 -74.00017 8745 ft 255 kts 218°
2026-05-09 01:08 40.46811 -74.01254 9484 ft 256 kts 218°
2026-05-09 01:09 40.45301 -74.02486 10167 ft 257 kts 218°
2026-05-09 01:09 40.43730 -74.03776 10377 ft 277 kts 218°
2026-05-09 01:09 40.42029 -74.05175 10490 ft 298 kts 218°
2026-05-09 01:09 40.40211 -74.06662 10632 ft 317 kts 217°
2026-05-09 01:10 40.38279 -74.08237 10769 ft 335 kts 217°
2026-05-09 01:10 40.36283 -74.09856 10974 ft 342 kts 217°
2026-05-09 01:10 40.34254 -74.11521 11008 ft 341 kts 220°
2026-05-09 01:10 40.32586 -74.13682 11289 ft 336 kts 239°
2026-05-09 01:11 40.31498 -74.16374 11882 ft 335 kts 249°
2026-05-09 01:11 40.30539 -74.19172 12468 ft 338 kts 249°
2026-05-09 01:11 40.29579 -74.22006 13041 ft 342 kts 250°
2026-05-09 01:11 40.28613 -74.24876 13593 ft 346 kts 250°
2026-05-09 01:12 40.27638 -74.27775 14114 ft 350 kts 250°
2026-05-09 01:12 40.26651 -74.30702 14644 ft 353 kts 250°
2026-05-09 01:12 40.25648 -74.33653 15188 ft 356 kts 250°
2026-05-09 01:12 40.24637 -74.36626 15727 ft 358 kts 250°
2026-05-09 01:13 40.23624 -74.39611 16276 ft 361 kts 250°
2026-05-09 01:13 40.22602 -74.42619 16816 ft 363 kts 250°
2026-05-09 01:13 40.21565 -74.45657 17345 ft 366 kts 250°
2026-05-09 01:13 40.20892 -74.47674 17691 ft 366 kts 253°
2026-05-09 01:14 40.20050 -74.51968 18343 ft 364 kts 265°
2026-05-09 01:14 40.19883 -74.54152 18642 ft 365 kts 267°
2026-05-09 01:14 40.19637 -74.57450 19101 ft 366 kts 267°
2026-05-09 01:14 40.19379 -74.60771 19567 ft 367 kts 267°
2026-05-09 01:15 40.19120 -74.64021 20017 ft 367 kts 267°
2026-05-09 01:15 40.18851 -74.67392 20490 ft 368 kts 267°
2026-05-09 01:15 40.18585 -74.70728 20935 ft 369 kts 267°
2026-05-09 01:15 40.18316 -74.74124 21377 ft 370 kts 267°
2026-05-09 01:16 40.18050 -74.77435 21819 ft 371 kts 267°
2026-05-09 01:16 40.17779 -74.80790 22250 ft 372 kts 267°
2026-05-09 01:16 40.17508 -74.84162 22678 ft 373 kts 268°
2026-05-09 01:17 40.16965 -74.90883 23508 ft 375 kts 268°
2026-05-09 01:17 40.16690 -74.94284 23853 ft 376 kts 268°
2026-05-09 01:17 40.16414 -74.97685 24186 ft 377 kts 268°
2026-05-09 01:17 40.16135 -75.01105 24522 ft 378 kts 267°
2026-05-09 01:18 40.15854 -75.04524 24844 ft 379 kts 267°
2026-05-09 01:18 40.15570 -75.07959 25165 ft 381 kts 267°
2026-05-09 01:18 40.15283 -75.11400 25472 ft 382 kts 267°
2026-05-09 01:18 40.14995 -75.14854 25804 ft 383 kts 267°
2026-05-09 01:19 40.14710 -75.18313 26128 ft 384 kts 267°
2026-05-09 01:19 40.14422 -75.21791 26443 ft 385 kts 267°
2026-05-09 01:19 40.14128 -75.25279 26763 ft 386 kts 266°
2026-05-09 01:19 40.13832 -75.28765 27061 ft 387 kts 266°
2026-05-09 01:20 40.13527 -75.32246 27473 ft 386 kts 264°
2026-05-09 01:20 40.12889 -75.35663 27904 ft 389 kts 255°
2026-05-09 01:20 40.11739 -75.38896 28331 ft 395 kts 246°
2026-05-09 01:20 40.10112 -75.41806 28751 ft 404 kts 236°
2026-05-09 01:21 40.08181 -75.44485 29170 ft 404 kts 235°
2026-05-09 01:21 40.06260 -75.47128 29604 ft 402 kts 235°
2026-05-09 01:21 40.04350 -75.49761 30043 ft 399 kts 235°
2026-05-09 01:21 40.02439 -75.52403 30412 ft 397 kts 236°
2026-05-09 01:22 40.00552 -75.55014 30787 ft 394 kts 236°
2026-05-09 01:22 39.98674 -75.57608 31148 ft 391 kts 236°
2026-05-09 01:22 39.96822 -75.60166 31517 ft 388 kts 236°
2026-05-09 01:22 39.94964 -75.62727 31887 ft 386 kts 236°
2026-05-09 01:23 39.93127 -75.65253 32257 ft 383 kts 236°
2026-05-09 01:23 39.91311 -75.67775 32603 ft 379 kts 238°
2026-05-09 01:23 39.89592 -75.70351 32944 ft 374 kts 239°
2026-05-09 01:23 39.87956 -75.72964 33257 ft 371 kts 240°
2026-05-09 01:24 39.86362 -75.75586 33573 ft 368 kts 241°
2026-05-09 01:24 39.84786 -75.78197 33884 ft 367 kts 241°
2026-05-09 01:24 39.81612 -75.83388 33979 ft 366 kts 240°
2026-05-09 01:25 39.78396 -75.88533 33979 ft 367 kts 240°
2026-05-09 01:25 39.75167 -75.93655 33977 ft 367 kts 240°
2026-05-09 01:26 39.71922 -75.98797 33973 ft 367 kts 240°
2026-05-09 01:26 39.68687 -76.03928 33968 ft 367 kts 240°
2026-05-09 01:27 39.65445 -76.09058 33963 ft 368 kts 239°
2026-05-09 01:27 39.62207 -76.14170 33963 ft 368 kts 239°
2026-05-09 01:28 39.58946 -76.19314 33970 ft 368 kts 239°
2026-05-09 01:28 39.55690 -76.24337 33976 ft 369 kts 239°
2026-05-09 01:29 39.52375 -76.29407 33980 ft 369 kts 239°
2026-05-09 01:29 39.49055 -76.34486 33982 ft 369 kts 238°
2026-05-09 01:30 39.45716 -76.39547 33988 ft 371 kts 237°
2026-05-09 01:30 39.42116 -76.44393 33990 ft 375 kts 234°
2026-05-09 01:31 39.38392 -76.49129 33992 ft 376 kts 234°
2026-05-09 01:31 39.34693 -76.53869 34004 ft 375 kts 234°
2026-05-09 01:32 39.31041 -76.58628 33992 ft 375 kts 234°
2026-05-09 01:32 39.27357 -76.63449 33969 ft 375 kts 234°
2026-05-09 01:33 39.23676 -76.68242 33974 ft 375 kts 234°
2026-05-09 01:33 39.20073 -76.72918 33972 ft 375 kts 234°
2026-05-09 01:34 39.16416 -76.77647 34010 ft 375 kts 234°
2026-05-09 01:34 39.12741 -76.82408 34020 ft 375 kts 234°
2026-05-09 01:35 39.09037 -76.87201 34022 ft 374 kts 234°
2026-05-09 01:35 39.05365 -76.91948 33998 ft 374 kts 234°
2026-05-09 01:36 39.01719 -76.96639 33997 ft 373 kts 234°
2026-05-09 01:36 38.98054 -77.01349 34000 ft 372 kts 235°
2026-05-09 01:37 38.94402 -77.06054 33991 ft 371 kts 235°
2026-05-09 01:37 38.90762 -77.10740 33992 ft 370 kts 235°
2026-05-09 01:38 38.87138 -77.15382 33991 ft 370 kts 235°
2026-05-09 01:38 38.83497 -77.20044 33976 ft 369 kts 235°
2026-05-09 01:39 38.79868 -77.24684 33974 ft 368 kts 235°
2026-05-09 01:39 38.76238 -77.29317 33977 ft 367 kts 235°
2026-05-09 01:40 38.72637 -77.33906 33975 ft 367 kts 234°
2026-05-09 01:40 38.68876 -77.38359 33996 ft 370 kts 233°
2026-05-09 01:41 38.65007 -77.42737 33996 ft 369 kts 232°
2026-05-09 01:41 38.61193 -77.47075 33996 ft 368 kts 233°
2026-05-09 01:42 38.57397 -77.51444 33995 ft 367 kts 233°
2026-05-09 01:42 38.53602 -77.55827 34008 ft 366 kts 233°
2026-05-09 01:43 38.49823 -77.60180 34001 ft 365 kts 233°
2026-05-09 01:43 38.46044 -77.64510 33994 ft 365 kts 233°
2026-05-09 01:44 38.42292 -77.68803 33995 ft 364 kts 233°
2026-05-09 01:44 38.38522 -77.73119 33997 ft 364 kts 233°
2026-05-09 01:45 38.34740 -77.77433 33995 ft 363 kts 233°
2026-05-09 01:45 38.30967 -77.81740 33986 ft 363 kts 233°
2026-05-09 01:46 38.27228 -77.86004 33990 ft 363 kts 233°
2026-05-09 01:46 38.23468 -77.90282 33992 ft 362 kts 233°
2026-05-09 01:47 38.19714 -77.94548 33992 ft 362 kts 233°
2026-05-09 01:47 38.15992 -77.98774 33996 ft 362 kts 233°
2026-05-09 01:48 38.12246 -78.03017 33996 ft 361 kts 233°
2026-05-09 01:48 38.08495 -78.07259 33992 ft 361 kts 233°
2026-05-09 01:49 38.04748 -78.11488 33985 ft 360 kts 233°
2026-05-09 01:49 38.01004 -78.15678 33993 ft 362 kts 232°
2026-05-09 01:50 37.96999 -78.19653 34008 ft 366 kts 230°
2026-05-09 01:50 37.92892 -78.23470 34002 ft 366 kts 229°
2026-05-09 01:51 37.88810 -78.27284 34007 ft 365 kts 230°
2026-05-09 01:51 37.84765 -78.31130 34000 ft 363 kts 230°
2026-05-09 01:52 37.80734 -78.34981 34001 ft 362 kts 230°
2026-05-09 01:52 37.76725 -78.38798 34001 ft 362 kts 230°
2026-05-09 01:53 37.72734 -78.42589 34003 ft 361 kts 230°
2026-05-09 01:53 37.69407 -78.45746 34004 ft 361 kts 230°
2026-05-09 01:54 37.64706 -78.50195 34014 ft 360 kts 230°
2026-05-09 01:54 37.60702 -78.53975 34013 ft 359 kts 230°
2026-05-09 01:55 37.56707 -78.57738 34021 ft 359 kts 230°
2026-05-09 01:55 37.52730 -78.61485 34021 ft 358 kts 230°
2026-05-09 01:56 37.48724 -78.65255 34019 ft 358 kts 230°
2026-05-09 01:56 37.44741 -78.69004 34020 ft 357 kts 230°
2026-05-09 01:57 37.40787 -78.72719 34019 ft 357 kts 230°
2026-05-09 01:57 37.37452 -78.75847 34021 ft 357 kts 230°
2026-05-09 01:58 37.34812 -78.78317 34274 ft 356 kts 230°
2026-05-09 01:58 37.32825 -78.80174 34499 ft 356 kts 230°
2026-05-09 01:58 37.31494 -78.81417 34630 ft 356 kts 230°
2026-05-09 01:58 37.29503 -78.83273 34840 ft 356 kts 230°
2026-05-09 01:59 37.27509 -78.85134 35027 ft 356 kts 230°
2026-05-09 01:59 37.25531 -78.86992 35233 ft 355 kts 230°
2026-05-09 01:59 37.23554 -78.88852 35429 ft 355 kts 230°
2026-05-09 01:59 37.21580 -78.90695 35697 ft 353 kts 230°
2026-05-09 02:00 37.19608 -78.92519 35975 ft 352 kts 230°
2026-05-09 02:00 37.17632 -78.94353 36034 ft 354 kts 230°
2026-05-09 02:00 37.13862 -78.97866 36024 ft 355 kts 230°
2026-05-09 02:01 37.09893 -79.01556 36027 ft 355 kts 230°
2026-05-09 02:01 37.05950 -79.05211 36025 ft 355 kts 230°
2026-05-09 02:02 37.02001 -79.08870 36023 ft 355 kts 230°
2026-05-09 02:02 36.98018 -79.12564 36020 ft 355 kts 230°
2026-05-09 02:03 36.94059 -79.16218 36013 ft 356 kts 230°
2026-05-09 02:03 36.90057 -79.19900 36021 ft 356 kts 230°
2026-05-09 02:04 36.86073 -79.23571 36030 ft 356 kts 230°
2026-05-09 02:04 36.82091 -79.27232 36031 ft 356 kts 230°
2026-05-09 02:05 36.78108 -79.30895 36033 ft 355 kts 230°
2026-05-09 02:05 36.74147 -79.34543 36036 ft 355 kts 229°
2026-05-09 02:06 36.70143 -79.38202 36044 ft 355 kts 229°
2026-05-09 02:07 36.64182 -79.43652 36045 ft 355 kts 229°
2026-05-09 02:07 36.60185 -79.47306 36049 ft 355 kts 229°
2026-05-09 02:08 36.56218 -79.50926 36048 ft 354 kts 229°
2026-05-09 02:08 36.52231 -79.54568 36045 ft 354 kts 229°
2026-05-09 02:09 36.48258 -79.58190 36036 ft 354 kts 229°
2026-05-09 02:09 36.44277 -79.61800 36055 ft 354 kts 229°
2026-05-09 02:10 36.40297 -79.65406 36057 ft 354 kts 229°
2026-05-09 02:10 36.36337 -79.68995 36060 ft 354 kts 229°
2026-05-09 02:11 36.32351 -79.72615 36056 ft 354 kts 229°
2026-05-09 02:11 36.28379 -79.76208 36053 ft 354 kts 229°
2026-05-09 02:12 36.24405 -79.79799 36040 ft 354 kts 229°
2026-05-09 02:12 36.20433 -79.83385 36048 ft 354 kts 229°
2026-05-09 02:13 36.16448 -79.86964 36046 ft 354 kts 229°
2026-05-09 02:13 36.12467 -79.90537 36054 ft 354 kts 229°
2026-05-09 02:14 36.08498 -79.94104 36054 ft 353 kts 229°
2026-05-09 02:14 36.04440 -79.97592 36053 ft 363 kts 222°
2026-05-09 02:14 36.02082 -79.98891 36055 ft 375 kts 217°
2026-05-09 02:15 35.99655 -80.00087 36051 ft 375 kts 217°
2026-05-09 02:15 35.94839 -80.02461 36042 ft 375 kts 217°
2026-05-09 02:16 35.89959 -80.04864 36037 ft 375 kts 217°
2026-05-09 02:16 35.85103 -80.07258 36046 ft 375 kts 217°
2026-05-09 02:17 35.80255 -80.09646 36048 ft 375 kts 217°
2026-05-09 02:17 35.75444 -80.12017 36053 ft 375 kts 217°
2026-05-09 02:18 35.70607 -80.14398 36053 ft 375 kts 217°
2026-05-09 02:18 35.65753 -80.16782 36055 ft 375 kts 217°
2026-05-09 02:19 35.60889 -80.19165 36054 ft 375 kts 217°
2026-05-09 02:19 35.56098 -80.21506 36093 ft 375 kts 217°
2026-05-09 02:20 35.51229 -80.23888 36097 ft 375 kts 216°
2026-05-09 02:20 35.46406 -80.26245 36101 ft 375 kts 216°
2026-05-09 02:21 35.41536 -80.28620 36094 ft 375 kts 216°
2026-05-09 02:21 35.40431 -80.29157 36092 ft 376 kts 215°
2026-05-09 02:22 35.36181 -80.31208 36087 ft 375 kts 216°
2026-05-09 02:22 35.31327 -80.33583 36067 ft 376 kts 216°
2026-05-09 02:23 35.26466 -80.35945 36061 ft 376 kts 216°
2026-05-09 02:23 35.21598 -80.38307 36053 ft 377 kts 216°
2026-05-09 02:24 35.16735 -80.40664 36038 ft 378 kts 216°
2026-05-09 02:24 35.11825 -80.43035 36041 ft 378 kts 216°
2026-05-09 02:25 35.06925 -80.45405 36042 ft 379 kts 215°
2026-05-09 02:25 35.02016 -80.47780 36039 ft 380 kts 215°
2026-05-09 02:26 34.97090 -80.50144 36036 ft 381 kts 215°
2026-05-09 02:26 34.92156 -80.52516 36036 ft 382 kts 215°
2026-05-09 02:27 34.87217 -80.54891 36035 ft 383 kts 215°
2026-05-09 02:27 34.82246 -80.57282 36029 ft 384 kts 215°
2026-05-09 02:28 34.77272 -80.59675 36040 ft 385 kts 214°
2026-05-09 02:28 34.72330 -80.62043 36042 ft 386 kts 214°
2026-05-09 02:29 34.67313 -80.64433 36036 ft 387 kts 214°
2026-05-09 02:29 34.64967 -80.65800 36035 ft 375 kts 223°
2026-05-09 02:29 34.62866 -80.67601 36035 ft 363 kts 231°
2026-05-09 02:30 34.59129 -80.71683 36036 ft 362 kts 231°
2026-05-09 02:30 34.55371 -80.75768 36033 ft 364 kts 231°
2026-05-09 02:31 34.51582 -80.79857 36032 ft 365 kts 231°
2026-05-09 02:31 34.47790 -80.83952 36030 ft 366 kts 231°
2026-05-09 02:32 34.44030 -80.88017 36037 ft 367 kts 231°
2026-05-09 02:32 34.40223 -80.92115 36044 ft 367 kts 231°
2026-05-09 02:33 34.36389 -80.96235 36053 ft 368 kts 231°
2026-05-09 02:33 34.32543 -81.00326 36058 ft 372 kts 227°
2026-05-09 02:33 34.30318 -81.02024 36060 ft 386 kts 217°
2026-05-09 02:34 34.27762 -81.03222 36059 ft 400 kts 210°
2026-05-09 02:34 34.22509 -81.05232 36053 ft 401 kts 210°
2026-05-09 02:35 34.17216 -81.07257 36043 ft 402 kts 210°
2026-05-09 02:35 34.11852 -81.09317 36037 ft 402 kts 210°
2026-05-09 02:36 34.06510 -81.11372 36025 ft 403 kts 210°
2026-05-09 02:36 34.01175 -81.13418 36026 ft 404 kts 210°
2026-05-09 02:37 33.95806 -81.15467 36028 ft 404 kts 210°
2026-05-09 02:37 33.90436 -81.17521 36027 ft 405 kts 210°
2026-05-09 02:38 33.85056 -81.19573 36032 ft 405 kts 209°
2026-05-09 02:38 33.79683 -81.21621 36039 ft 406 kts 209°
2026-05-09 02:39 33.74297 -81.23678 36041 ft 406 kts 209°
2026-05-09 02:39 33.68906 -81.25731 36042 ft 406 kts 209°
2026-05-09 02:40 33.63515 -81.27777 36042 ft 407 kts 209°
2026-05-09 02:40 33.58138 -81.29812 36041 ft 407 kts 209°
2026-05-09 02:41 33.52741 -81.31854 36043 ft 407 kts 209°
2026-05-09 02:41 33.47372 -81.33883 36051 ft 407 kts 209°
2026-05-09 02:42 33.41980 -81.35922 36058 ft 408 kts 209°
2026-05-09 02:42 33.37510 -81.37612 36065 ft 408 kts 209°
2026-05-09 02:43 33.31172 -81.40002 36067 ft 408 kts 209°
2026-05-09 02:43 33.25849 -81.42038 36067 ft 407 kts 210°
2026-05-09 02:44 33.20520 -81.44306 36067 ft 405 kts 211°
2026-05-09 02:44 33.16091 -81.46260 36066 ft 405 kts 211°
2026-05-09 02:45 33.09994 -81.48917 36058 ft 406 kts 211°
2026-05-09 02:45 33.05549 -81.50820 36056 ft 407 kts 211°
2026-05-09 02:46 33.00204 -81.53098 36058 ft 407 kts 211°
2026-05-09 02:46 32.95067 -81.55285 36061 ft 407 kts 211°
2026-05-09 02:47 32.89709 -81.57570 36062 ft 406 kts 211°
2026-05-09 02:47 32.84428 -81.59930 36070 ft 405 kts 212°
2026-05-09 02:48 32.79219 -81.62329 36077 ft 405 kts 212°
2026-05-09 02:48 32.73935 -81.64750 36076 ft 405 kts 212°
2026-05-09 02:49 32.68692 -81.67124 36077 ft 406 kts 212°
2026-05-09 02:49 32.63416 -81.69499 36077 ft 406 kts 211°
2026-05-09 02:50 32.58104 -81.71880 36041 ft 407 kts 211°
2026-05-09 02:50 32.52819 -81.74252 36039 ft 407 kts 211°
2026-05-09 02:51 32.47516 -81.76634 36041 ft 407 kts 211°
2026-05-09 02:51 32.42236 -81.79005 36039 ft 407 kts 211°
2026-05-09 02:52 32.36935 -81.81375 36042 ft 408 kts 211°
2026-05-09 02:52 32.31667 -81.83734 36065 ft 408 kts 211°
2026-05-09 02:53 32.26367 -81.86109 36066 ft 409 kts 211°
2026-05-09 02:53 32.21053 -81.88474 36066 ft 409 kts 210°
2026-05-09 02:54 32.15748 -81.90833 36066 ft 410 kts 210°
2026-05-09 02:54 32.10371 -81.93086 36068 ft 413 kts 208°
2026-05-09 02:55 32.04896 -81.95096 36070 ft 415 kts 207°
2026-05-09 02:55 31.99399 -81.97057 36077 ft 415 kts 207°
2026-05-09 02:56 31.93895 -81.99081 36079 ft 415 kts 207°
2026-05-09 02:56 31.88396 -82.01142 36080 ft 415 kts 207°
2026-05-09 02:57 31.82907 -82.03188 36081 ft 416 kts 207°
2026-05-09 02:57 31.77423 -82.05173 36100 ft 417 kts 207°
2026-05-09 02:58 31.71921 -82.07151 36105 ft 417 kts 207°
2026-05-09 02:58 31.66360 -82.09168 36108 ft 417 kts 207°
2026-05-09 02:59 31.60790 -82.11190 36119 ft 417 kts 207°
2026-05-09 02:59 31.55249 -82.13198 36120 ft 418 kts 207°
2026-05-09 03:00 31.49718 -82.15194 36121 ft 418 kts 207°
2026-05-09 03:00 31.44146 -82.17196 36119 ft 418 kts 207°
2026-05-09 03:01 31.38593 -82.19200 36101 ft 418 kts 207°
2026-05-09 03:01 31.33039 -82.21207 36099 ft 419 kts 207°
2026-05-09 03:02 31.27452 -82.23211 36100 ft 419 kts 207°
2026-05-09 03:02 31.21878 -82.25211 36093 ft 419 kts 207°
2026-05-09 03:03 31.16346 -82.27193 36094 ft 420 kts 207°
2026-05-09 03:03 31.10856 -82.29163 36098 ft 420 kts 207°
2026-05-09 03:04 31.05177 -82.31188 36104 ft 421 kts 207°
2026-05-09 03:04 30.99584 -82.33184 36117 ft 422 kts 207°
2026-05-09 03:05 30.93989 -82.35185 36130 ft 422 kts 207°
2026-05-09 03:05 30.88392 -82.37179 36146 ft 422 kts 207°
2026-05-09 03:06 30.82810 -82.39163 36151 ft 423 kts 207°
2026-05-09 03:06 30.77176 -82.41161 36154 ft 423 kts 207°
2026-05-09 03:07 30.71514 -82.43048 36159 ft 431 kts 200°
2026-05-09 03:07 30.68499 -82.43429 36157 ft 445 kts 191°
2026-05-09 03:07 30.65415 -82.43290 36160 ft 452 kts 187°
2026-05-09 03:08 30.59112 -82.42828 36162 ft 453 kts 187°
2026-05-09 03:08 30.52896 -82.42369 36162 ft 453 kts 187°
2026-05-09 03:09 30.46607 -82.41929 36156 ft 453 kts 187°
2026-05-09 03:09 30.40354 -82.41496 36140 ft 454 kts 187°
2026-05-09 03:10 30.34077 -82.41056 36126 ft 454 kts 187°
2026-05-09 03:10 30.27844 -82.40625 36122 ft 454 kts 187°
2026-05-09 03:11 30.22639 -82.40269 36110 ft 454 kts 187°
2026-05-09 03:11 30.15268 -82.39770 36110 ft 455 kts 187°
2026-05-09 03:12 30.08944 -82.39331 36115 ft 455 kts 187°
2026-05-09 03:12 30.02629 -82.38889 36124 ft 455 kts 187°
2026-05-09 03:13 29.93157 -82.38233 36132 ft 456 kts 187°
2026-05-09 03:13 29.86839 -82.37797 36115 ft 456 kts 187°
2026-05-09 03:14 29.80533 -82.37363 36101 ft 456 kts 187°
2026-05-09 03:14 29.74197 -82.36930 36093 ft 456 kts 187°
2026-05-09 03:15 29.67883 -82.36501 36089 ft 457 kts 187°
2026-05-09 03:15 29.61606 -82.36074 36093 ft 457 kts 187°
2026-05-09 03:16 29.55370 -82.35644 36098 ft 457 kts 187°
2026-05-09 03:16 29.49011 -82.35213 36103 ft 457 kts 187°
2026-05-09 03:17 29.42687 -82.34777 36108 ft 457 kts 187°
2026-05-09 03:17 29.36335 -82.34336 36083 ft 457 kts 187°
2026-05-09 03:18 29.30006 -82.33908 36079 ft 457 kts 187°
2026-05-09 03:18 29.23743 -82.33476 36066 ft 458 kts 186°
2026-05-09 03:19 29.17401 -82.33045 36062 ft 458 kts 186°
2026-05-09 03:19 29.11051 -82.32617 36066 ft 459 kts 186°
2026-05-09 03:20 29.04710 -82.32184 36066 ft 459 kts 186°
2026-05-09 03:20 28.98331 -82.31756 36061 ft 459 kts 186°
2026-05-09 03:21 28.92003 -82.31334 36067 ft 460 kts 186°
2026-05-09 03:21 28.85608 -82.30897 36069 ft 461 kts 186°
2026-05-09 03:22 28.79248 -82.30468 36069 ft 461 kts 186°
2026-05-09 03:22 28.72849 -82.30042 36068 ft 461 kts 186°
2026-05-09 03:23 28.66448 -82.29608 36070 ft 462 kts 186°
2026-05-09 03:23 28.60093 -82.29175 36066 ft 462 kts 186°
2026-05-09 03:24 28.53685 -82.28744 36070 ft 462 kts 186°
2026-05-09 03:24 28.47310 -82.28317 36068 ft 462 kts 186°
2026-05-09 03:25 28.40910 -82.27891 36065 ft 462 kts 185°
2026-05-09 03:25 28.34513 -82.27456 36071 ft 463 kts 185°
2026-05-09 03:26 28.28176 -82.27030 36078 ft 463 kts 185°
2026-05-09 03:26 28.21780 -82.26607 36077 ft 463 kts 185°
2026-05-09 03:27 28.15536 -82.26191 36076 ft 463 kts 185°
2026-05-09 03:27 28.09068 -82.25762 36055 ft 464 kts 185°
2026-05-09 03:28 28.02576 -82.25335 36057 ft 464 kts 185°
2026-05-09 03:28 27.96223 -82.24919 36073 ft 464 kts 185°
2026-05-09 03:29 27.89738 -82.24491 36069 ft 465 kts 185°
2026-05-09 03:29 27.83572 -82.24076 36060 ft 465 kts 185°
2026-05-09 03:30 27.77223 -82.23676 36047 ft 464 kts 185°
2026-05-09 03:30 27.71867 -82.23341 36032 ft 465 kts 185°
2026-05-09 03:31 27.64402 -82.22818 36032 ft 466 kts 184°
2026-05-09 03:31 27.58121 -82.22380 36031 ft 466 kts 185°
2026-05-09 03:32 27.52675 -82.22022 36029 ft 466 kts 185°
2026-05-09 03:32 27.45232 -82.21549 36039 ft 466 kts 185°
2026-05-09 03:33 27.39857 -82.21204 36042 ft 467 kts 184°
2026-05-09 03:33 27.33439 -82.20778 36041 ft 467 kts 184°
2026-05-09 03:34 27.27185 -82.20355 36043 ft 467 kts 184°
2026-05-09 03:34 27.20781 -82.19933 36045 ft 467 kts 184°
2026-05-09 03:35 27.14381 -82.19524 36047 ft 467 kts 184°
2026-05-09 03:35 27.07947 -82.18997 36047 ft 472 kts 178°
2026-05-09 03:36 27.01501 -82.17731 36063 ft 474 kts 177°
2026-05-09 03:36 26.95140 -82.16505 36067 ft 474 kts 178°
2026-05-09 03:37 26.88679 -82.15258 36078 ft 474 kts 177°
2026-05-09 03:37 26.82327 -82.14023 36067 ft 474 kts 177°
2026-05-09 03:38 26.75863 -82.12773 36058 ft 474 kts 177°
2026-05-09 03:38 26.69500 -82.11404 36051 ft 476 kts 175°
2026-05-09 03:39 26.63552 -82.09961 36047 ft 476 kts 174°
2026-05-09 03:39 26.57128 -82.08389 36045 ft 476 kts 174°
2026-05-09 03:40 26.50851 -82.06456 36038 ft 485 kts 163°
2026-05-09 03:40 26.44694 -82.03642 36034 ft 485 kts 163°
2026-05-09 03:41 26.38468 -82.00801 36041 ft 486 kts 163°
2026-05-09 03:41 26.35421 -81.99415 35820 ft 486 kts 163°
2026-05-09 03:41 26.32326 -81.98008 35538 ft 486 kts 163°
2026-05-09 03:42 26.29295 -81.96630 34835 ft 489 kts 163°
2026-05-09 03:42 26.26118 -81.95184 34072 ft 493 kts 163°
2026-05-09 03:42 26.23021 -81.93778 33147 ft 499 kts 163°
2026-05-09 03:42 26.19808 -81.92317 32299 ft 501 kts 163°
2026-05-09 03:43 26.16619 -81.90863 31805 ft 496 kts 163°
2026-05-09 03:43 26.13504 -81.89444 31215 ft 494 kts 163°
2026-05-09 03:43 26.10344 -81.88008 30637 ft 492 kts 163°
2026-05-09 03:43 26.07204 -81.86585 30047 ft 491 kts 163°
2026-05-09 03:44 26.04066 -81.85166 29419 ft 488 kts 163°
2026-05-09 03:44 26.00985 -81.83772 28848 ft 484 kts 163°
2026-05-09 03:44 25.97907 -81.82376 28287 ft 480 kts 163°
2026-05-09 03:44 25.94897 -81.81012 27727 ft 476 kts 163°
2026-05-09 03:45 25.91826 -81.79621 27162 ft 472 kts 163°
2026-05-09 03:45 25.88883 -81.78182 26614 ft 472 kts 157°
2026-05-09 03:45 25.86060 -81.76313 26060 ft 471 kts 153°
2026-05-09 03:45 25.83305 -81.74420 25582 ft 466 kts 153°
2026-05-09 03:46 25.80590 -81.72550 25001 ft 463 kts 153°
2026-05-09 03:46 25.77912 -81.70701 24496 ft 458 kts 153°
2026-05-09 03:46 25.75299 -81.68896 23968 ft 438 kts 153°
2026-05-09 03:46 25.72850 -81.67197 23490 ft 420 kts 153°
2026-05-09 03:47 25.70450 -81.65537 23014 ft 401 kts 153°
2026-05-09 03:47 25.68139 -81.63945 22585 ft 383 kts 153°
2026-05-09 03:47 25.65931 -81.62437 22171 ft 385 kts 153°
2026-05-09 03:47 25.63637 -81.60874 21738 ft 382 kts 153°
2026-05-09 03:48 25.61437 -81.59377 21312 ft 380 kts 153°
2026-05-09 03:48 25.59200 -81.57853 20879 ft 378 kts 152°
2026-05-09 03:48 25.56963 -81.56325 20441 ft 376 kts 152°
2026-05-09 03:48 25.54785 -81.54838 19991 ft 375 kts 152°
2026-05-09 03:49 25.52475 -81.53552 19541 ft 368 kts 164°
2026-05-09 03:49 25.50117 -81.52894 19105 ft 362 kts 176°
2026-05-09 03:49 25.47568 -81.52831 18646 ft 356 kts 188°
2026-05-09 03:49 25.45224 -81.53360 18192 ft 352 kts 200°
2026-05-09 03:50 25.42967 -81.54360 17716 ft 348 kts 204°
2026-05-09 03:50 25.40749 -81.55395 17271 ft 345 kts 204°
2026-05-09 03:50 25.38586 -81.56399 16842 ft 342 kts 204°
2026-05-09 03:50 25.36419 -81.57400 16374 ft 341 kts 204°
2026-05-09 03:51 25.34264 -81.58396 15928 ft 338 kts 204°
2026-05-09 03:51 25.32103 -81.59396 15491 ft 337 kts 204°
2026-05-09 03:51 25.29984 -81.60375 15055 ft 335 kts 203°
2026-05-09 03:51 25.27900 -81.61338 14624 ft 334 kts 203°
2026-05-09 03:52 25.25796 -81.62310 14190 ft 333 kts 203°
2026-05-09 03:52 25.23625 -81.63312 13726 ft 332 kts 203°
2026-05-09 03:52 25.21570 -81.64261 13268 ft 331 kts 203°
2026-05-09 03:52 25.19422 -81.65252 12808 ft 328 kts 203°
2026-05-09 03:53 25.17354 -81.66204 12383 ft 326 kts 203°
2026-05-09 03:53 25.15290 -81.67157 11940 ft 324 kts 203°
2026-05-09 03:53 25.13324 -81.68065 11532 ft 323 kts 202°
2026-05-09 03:53 25.11211 -81.69037 11102 ft 321 kts 202°
2026-05-09 03:54 25.09181 -81.69969 10687 ft 320 kts 202°
2026-05-09 03:54 25.07136 -81.70910 10387 ft 314 kts 202°
2026-05-09 03:54 25.05175 -81.71814 10272 ft 302 kts 202°
2026-05-09 03:54 25.03296 -81.72680 10157 ft 292 kts 202°
2026-05-09 03:55 25.01489 -81.73513 10045 ft 282 kts 202°
2026-05-09 03:55 24.99645 -81.74133 9999 ft 278 kts 184°
2026-05-09 03:55 24.97792 -81.73873 10007 ft 280 kts 160°
2026-05-09 03:55 24.96185 -81.72767 10001 ft 271 kts 136°
2026-05-09 03:56 24.95149 -81.71114 10021 ft 263 kts 114°
2026-05-09 03:56 24.94766 -81.69185 10006 ft 266 kts 92°
2026-05-09 03:56 24.95101 -81.67178 10001 ft 269 kts 68°
2026-05-09 03:56 24.96132 -81.65486 10007 ft 271 kts 44°
2026-05-09 03:57 24.97694 -81.64377 10010 ft 271 kts 23°
2026-05-09 03:57 24.99430 -81.63593 10004 ft 272 kts 21°
2026-05-09 03:57 25.01167 -81.62877 10008 ft 272 kts 20°
2026-05-09 03:57 25.02958 -81.62163 10010 ft 272 kts 19°
2026-05-09 03:58 25.04712 -81.61461 10011 ft 272 kts 20°
2026-05-09 03:58 25.06470 -81.60747 10011 ft 272 kts 20°
2026-05-09 03:58 25.08231 -81.60220 10007 ft 272 kts
2026-05-09 03:58 25.10107 -81.60438 10013 ft 269 kts 340°
2026-05-09 03:59 25.11613 -81.61359 10013 ft 266 kts 317°
2026-05-09 03:59 25.12774 -81.63008 10008 ft 262 kts 292°
2026-05-09 03:59 25.13217 -81.64863 10014 ft 258 kts 270°
2026-05-09 03:59 25.12993 -81.66777 10009 ft 255 kts 249°
2026-05-09 04:00 25.12118 -81.68477 10015 ft 253 kts 227°
2026-05-09 04:00 25.10765 -81.69659 10011 ft 252 kts 207°
2026-05-09 04:00 25.09188 -81.70449 10014 ft 252 kts 202°
2026-05-09 04:00 25.07565 -81.71137 10015 ft 252 kts 200°
2026-05-09 04:01 25.05998 -81.71762 10009 ft 252 kts 199°
2026-05-09 04:01 25.04326 -81.72425 10008 ft 252 kts 200°
2026-05-09 04:01 25.02700 -81.73074 10009 ft 252 kts 200°
2026-05-09 04:01 25.01070 -81.73731 10010 ft 252 kts 199°
2026-05-09 04:02 24.99441 -81.74038 10012 ft 253 kts 177°
2026-05-09 04:02 24.97746 -81.73479 10005 ft 256 kts 150°
2026-05-09 04:02 24.96507 -81.72142 10005 ft 260 kts 122°